Theta_e
285 285 284 283 283 283 283 284 284 285 285 285 286 287 288 287 286 287 286 287 287 289
285 285 284 284 285 284 283 284 284 284 284 284 284 285 285 284 285 285 285 286 286 286
282 284 283 282 283 283 283 283 282 282 282 283 284 283 283 283 283 283 284 286 285 285
282 282 282 280 281 280 281 282 281 280 281 281 282 282 281 281 282 282 282 283 283 284
281 282 280 280 280 280 280 281 281 280 280 279 279 280 280 280 280 280 280 281 282 283
279 280 280 280 280 280 279 280 280 280 279 279 279 278 279 279 279 280 280 281 281 281
278 278 278 279 279 278 279 278 278 278 278 279 279 279 278 278 278 279 279 280 281 282
278 278 278 278 278 277 278 278 278 278 278 278 278 278 277 278 278 278 278 279 280 281
278 278 277 277 277 277 276 276 276 276 276 275 277 280 281 280 278 278 277 277 278 279
276 275 275 275 274 273 272 273 272 273 273 273 273 277 278 278 277 276 276 276 277 277
273 271 272 271 270 270 270 269 269 269 269 269 270 274 275 275 273 272 273 274 275 275
270 268 269 267 267 268 267 266 266 267 266 266 266 270 272 272 269 270 270 271 272 272
268 263 265 265 264 265 264 265 265 265 265 264 263 268 270 271 269 267 268 270 271 273
266 264 263 263 263 262 262 263 261 262 262 263 264 264 269 271 269 268 267 268 269 271
Wind_Speed
9 7 7 7 6 5 4 4 5 7 8 8 8 9 9 4 4 5 5 7 6 6
7 8 7 7 7 7 6 7 9 9 9 8 7 7 7 5 7 5 5 6 6 6
5 4 4 4 5 5 6 7 7 8 9 11 12 9 7 5 6 6 6 5 6 6
5 5 5 5 5 5 6 5 6 6 6 6 8 8 8 8 7 7 7 8 6 9
6 6 7 7 7 7 9 9 10 9 8 7 7 7 7 9 8 9 10 10 9 10
4 4 5 6 8 9 9 10 10 9 10 11 12 12 10 9 10 11 11 11 11 12
4 5 5 6 6 7 7 8 10 10 11 11 12 13 13 14 14 12 12 12 12 14
5 5 5 6 6 6 6 7 9 10 11 11 12 10 12 13 13 14 16 16 15 13
3 5 6 7 9 10 12 12 13 14 14 14 11 21 25 23 16 17 18 18 18 17
7 8 9 10 12 13 14 15 15 16 15 17 16 25 28 28 16 17 17 19 18 17
5 6 10 13 13 14 13 14 14 16 16 17 15 27 29 30 19 17 19 19 19 19
4 7 10 10 12 12 13 14 14 14 15 16 16 26 29 26 16 17 19 17 19 19
6 3 8 11 12 12 11 14 12 15 14 17 17 24 28 24 13 16 14 16 17 24
6 9 10 11 10 11 12 13 13 15 14 15 15 17 27 27 15 13 13 13 13 12
Wind_Direction
41 46 34 20 20 10 7 8 8 2 2 356 360 0 356 347 335 314 286 278 261 261
38 33 32 24 18 357 353 0 1 4 356 343 347 354 357 347 340 333 305 291 280 263
31 27 36 22 13 357 330 328 344 350 352 340 336 340 347 338 330 336 323 305 292 283
21 348 11 7 350 345 313 316 323 323 320 310 308 312 325 322 316 326 313 308 296 286
354 352 353 338 333 326 319 331 325 322 317 302 287 280 291 299 297 299 304 300 296 288
300 306 307 301 310 318 321 314 309 302 298 297 302 307 299 291 290 280 274 280 283 283
273 273 275 276 277 277 278 283 279 283 287 292 293 290 296 300 299 293 288 281 272 273
255 250 252 258 259 259 256 267 269 284 283 283 281 286 294 291 292 294 292 288 281 269
312 336 335 326 326 326 320 316 311 305 301 297 289 293 297 298 295 293 287 284 283 282
349 342 341 337 329 322 317 314 310 308 306 300 299 303 300 298 294 289 284 280 278 277
1 347 332 323 317 315 311 309 306 304 304 300 303 308 308 304 294 286 281 277 276 275
360 323 314 306 302 304 303 300 300 296 300 300 299 302 301 302 295 285 284 285 283 281
318 280 297 295 297 294 289 291 296 295 294 291 291 296 297 297 288 285 285 281 279 277
309 301 291 288 289 291 290 290 291 289 289 286 284 284 290 292 288 286 285 280 281 282